Stations météo

réclame
Mon MeteoGroup
Semmerzake, Belgique (6428): Température de l'air & dewpoint: 20.05.2018 23:00:00 - 26.05.2018 23:00:00 (CEST)Semmerzake, Belgique (6428): Vitesse du vent & gusts: 20.05.2018 23:00:00 - 26.05.2018 23:00:00 (CEST)Semmerzake, Belgique (6428): Direction du vent: 20.05.2018 23:00:00 - 26.05.2018 23:00:00 (CEST)Semmerzake, Belgique (6428): reduced air pressure: 20.05.2018 23:00:00 - 26.05.2018 23:00:00 (CEST)Semmerzake, Belgique (6428): visibility: 20.05.2018 23:00:00 - 26.05.2018 23:00:00 (CEST)
Date & Time tt [°C] td [°C] ff [km/h] ff [knt] fx [km/h] fx [knt] dd ppp [hPa] vv [km]
26.05.2018 23:00:00 - - - - - - - - -
26.05.2018 22:00:00 - - - - - - - - -
26.05.2018 21:00:00 - - - - - - - - -
26.05.2018 20:00:00 - - - - - - - - -
26.05.2018 19:00:00 26,9 16,6 11 6 22 12 ENE 1017,1 20
26.05.2018 18:00:00 27,4 15,9 11 6 22 12 E 1017,3 20
26.05.2018 17:00:00 27,3 15,8 11 6 - - E 1017,7 20
26.05.2018 16:00:00 27,2 15,7 11 6 25 14 ESE 1018,2 19
26.05.2018 15:00:00 26,7 17,2 11 6 25 14 E 1018,7 20
26.05.2018 14:00:00 25,8 15,6 14 8 - - E 1018,7 18
26.05.2018 13:00:00 25,2 15,7 14 8 25 14 ENE 1019,0 18
26.05.2018 12:00:00 24,2 17,9 11 6 18 10 E 1019,0 8
26.05.2018 11:00:00 22,0 16,9 7 4 - - NE 1019,0 4,9
26.05.2018 10:00:00 19,1 16,7 7 4 11 6 NE 1019,2 2,7
26.05.2018 09:00:00 16,2 15,4 7 4 11 6 NNE 1019,1 1,6
26.05.2018 08:00:00 14,7 14,7 4 2 - - N 1018,7 0,9
26.05.2018 07:00:00 14,3 14,2 7 4 11 6 NNE 1018,7 0,1
26.05.2018 06:00:00 14,3 14,2 4 2 11 6 N 1018,7 0,1
26.05.2018 05:00:00 14,3 14,3 7 4 - - WSW 1019,0 0,3
26.05.2018 04:00:00 14,3 14,2 7 4 11 6 NNE 1018,5 0,3
26.05.2018 03:00:00 14,1 14,1 4 2 11 6 N 1018,7 0,1
26.05.2018 02:00:00 14,1 14,1 4 2 - - N 1018,8 0,5
26.05.2018 01:00:00 14,3 14,2 7 4 11 6 N 1019,2 0,6
26.05.2018 00:00:00 14,7 14,3 7 4 14 8 N 1019,1 0,9
25.05.2018 23:00:00 15,3 14,9 11 6 - - N 1019,0 0,9
25.05.2018 22:00:00 16,6 15,5 11 6 18 10 N 1018,8 1,7
25.05.2018 21:00:00 18,1 16,0 11 6 22 12 N 1018,2 2,3
25.05.2018 20:00:00 19,7 16,6 11 6 - - N 1018,1 2,9
25.05.2018 19:00:00 21,0 17,5 11 6 22 12 N 1017,7 2,8
25.05.2018 18:00:00 21,8 17,8 14 8 22 12 NNE 1017,8 3,6
25.05.2018 17:00:00 24,2 15,5 4 2 - - N 1018,1 13
25.05.2018 16:00:00 23,7 17,1 4 2 11 6 N 1018,2 6
25.05.2018 15:00:00 21,6 14,7 4 2 11 6 N 1018,2 7
25.05.2018 14:00:00 20,8 14,8 4 2 - - N 1018,2 7
25.05.2018 13:00:00 21,2 16,2 4 2 11 6 N 1018,3 7
25.05.2018 12:00:00 20,3 15,7 4 2 11 6 N 1018,2 6
25.05.2018 11:00:00 18,0 14,9 4 2 - - N 1018,2 6
25.05.2018 10:00:00 16,3 14,2 4 2 11 6 N 1018,2 5
25.05.2018 09:00:00 15,5 13,7 7 4 11 6 WSW 1018,2 4,5
25.05.2018 08:00:00 14,6 13,5 4 2 - - N 1017,7 5
25.05.2018 07:00:00 13,4 13,4 4 2 11 6 N 1017,6 0,9
25.05.2018 06:00:00 13,5 13,5 4 2 11 6 N 1017,2 0,1
25.05.2018 05:00:00 13,3 13,2 7 4 - - N 1017,0 0,2
25.05.2018 04:00:00 13,8 12,8 7 4 11 6 SSW 1016,7 10
25.05.2018 03:00:00 13,6 13,0 4 2 7 4 N 1017,0 11
25.05.2018 02:00:00 14,6 13,6 4 2 - - N 1017,1 12
25.05.2018 01:00:00 14,7 14,2 4 2 11 6 N 1016,7 2,2
25.05.2018 00:00:00 16,1 13,9 4 2 25 14 N 1016,8 16
24.05.2018 23:00:00 15,8 15,6 4 2 - - N 1017,2 2,5
24.05.2018 22:00:00 15,5 15,1 4 2 7 4 N 1016,7 2,7
24.05.2018 21:00:00 15,9 15,6 4 2 14 8 N 1016,5 5
24.05.2018 20:00:00 16,6 16,2 7 4 - - N 1016,3 5
24.05.2018 19:00:00 16,2 15,9 4 2 40 21 N 1016,6 4,2
24.05.2018 18:00:00 21,7 15,7 4 2 14 8 N 1015,7 16
24.05.2018 17:00:00 22,7 15,4 7 4 - - NE 1015,7 13
24.05.2018 16:00:00 22,3 14,5 7 4 18 10 E 1016,6 14
24.05.2018 15:00:00 23,1 13,0 11 6 18 10 ESE 1017,0 19
24.05.2018 14:00:00 22,1 15,2 7 4 - - E 1017,3 12
24.05.2018 13:00:00 22,0 14,6 7 4 14 8 E 1017,7 14
24.05.2018 12:00:00 21,6 14,0 7 4 18 10 NNE 1018,1 15
24.05.2018 11:00:00 19,3 13,0 11 6 - - ENE 1018,7 17
24.05.2018 10:00:00 17,3 12,2 11 6 22 12 ENE 1019,1 17
24.05.2018 09:00:00 16,2 12,6 7 4 11 6 ENE 1019,2 17
24.05.2018 08:00:00 14,3 12,3 4 2 - - N 1019,2 10
24.05.2018 07:00:00 13,6 12,8 7 4 11 6 NE 1019,1 4,1
24.05.2018 06:00:00 13,7 13,2 4 2 11 6 N 1019,2 1,1
24.05.2018 05:00:00 14,5 14,0 7 4 - - NNE 1019,5 2,9
24.05.2018 04:00:00 14,1 13,7 4 2 7 4 N 1019,7 3,2
24.05.2018 03:00:00 14,6 14,3 4 2 4 2 N 1020,0 3,9
24.05.2018 02:00:00 15,0 14,1 0 0 - - N 1020,3 16
24.05.2018 01:00:00 16,0 14,3 7 4 25 14 S 1020,7 13
24.05.2018 00:00:00 16,2 15,0 4 2 25 14 N 1020,2 4,7
23.05.2018 23:00:00 16,7 16,5 4 2 - - N 1019,8 1,2
23.05.2018 22:00:00 16,6 16,2 4 2 11 6 N 1019,8 2,0
23.05.2018 21:00:00 16,8 15,8 4 2 36 19 - 1019,6 3,4
23.05.2018 20:00:00 16,5 14,9 22 12 - - SE 1019,6 5
23.05.2018 19:00:00 20,9 15,3 7 4 14 8 NE 1018,7 14
23.05.2018 18:00:00 20,2 15,7 11 6 29 16 NNE 1018,8 10
23.05.2018 17:00:00 19,2 15,5 14 8 - - ENE 1019,0 6
23.05.2018 16:00:00 21,3 16,0 7 4 14 8 NNE 1019,2 7
23.05.2018 15:00:00 19,1 15,9 7 4 18 10 NNW 1019,7 6
23.05.2018 14:00:00 18,7 15,2 7 4 - - NNE 1020,1 4,1
23.05.2018 13:00:00 17,6 14,7 7 4 18 10 NE 1020,3 6
23.05.2018 12:00:00 17,3 15,3 11 6 22 12 NE 1020,1 11
23.05.2018 11:00:00 16,1 14,8 7 4 - - NNE 1020,1 6
23.05.2018 10:00:00 14,8 14,3 4 2 11 6 N 1019,8 2,4
23.05.2018 09:00:00 13,5 13,3 4 2 7 4 N 1019,5 1,6
23.05.2018 08:00:00 13,3 12,6 4 2 - - N 1019,1 3,4
23.05.2018 07:00:00 13,3 12,1 7 4 11 6 N 1018,3 5
23.05.2018 06:00:00 13,3 11,7 7 4 14 8 N 1017,8 6
23.05.2018 05:00:00 13,3 11,7 7 4 - - NNW 1017,5 6
23.05.2018 04:00:00 13,3 11,9 7 4 11 6 NW 1017,2 6
23.05.2018 03:00:00 13,3 11,8 7 4 11 6 N 1017,0 5
23.05.2018 02:00:00 13,6 11,6 4 2 - - N 1017,2 6
23.05.2018 01:00:00 14,1 12,3 4 2 14 8 N 1016,8 6
23.05.2018 00:00:00 15,3 12,6 7 4 14 8 NNW 1016,6 7
22.05.2018 23:00:00 15,6 12,5 4 2 - - N 1016,2 15
22.05.2018 22:00:00 16,7 12,6 7 4 11 6 NW 1015,5 20
22.05.2018 21:00:00 16,6 13,4 4 2 7 4 N 1015,2 20
22.05.2018 20:00:00 17,0 13,6 4 2 - - N 1015,0 20
22.05.2018 19:00:00 18,5 13,9 11 6 18 10 NE 1014,6 13
22.05.2018 18:00:00 19,0 13,2 7 4 22 12 N 1014,1 15
22.05.2018 17:00:00 19,5 13,9 14 8 - - N 1013,2 13
22.05.2018 16:00:00 18,2 15,7 14 8 32 18 NNE 1012,8 3,3
22.05.2018 15:00:00 22,2 13,5 14 8 22 12 N 1012,7 11
22.05.2018 14:00:00 23,8 13,0 4 2 - - N 1012,8 17
22.05.2018 13:00:00 22,3 12,5 4 2 18 10 N 1013,1 17
22.05.2018 12:00:00 21,4 12,7 7 4 14 8 NE 1013,1 20
22.05.2018 11:00:00 20,2 13,0 7 4 - - NNE 1013,1 17
22.05.2018 10:00:00 18,3 12,5 4 2 11 6 N 1013,2 18
22.05.2018 09:00:00 16,3 12,5 7 4 11 6 N 1013,1 13
22.05.2018 08:00:00 15,1 12,5 4 2 - - N 1012,7 10
22.05.2018 07:00:00 12,8 11,6 4 2 4 2 N 1012,3 8
22.05.2018 06:00:00 12,0 11,1 4 2 4 2 N 1012,0 9
22.05.2018 05:00:00 12,6 11,3 4 2 - - N 1012,0 12
22.05.2018 04:00:00 13,6 11,4 4 2 7 4 N 1011,7 15
22.05.2018 03:00:00 14,5 11,5 4 2 7 4 N 1011,8 20
22.05.2018 02:00:00 15,1 11,2 4 2 - - N 1012,1 20
22.05.2018 01:00:00 15,6 11,3 4 2 11 6 N 1012,2 20
22.05.2018 00:00:00 16,6 11,6 7 4 11 6 N 1012,3 17
21.05.2018 23:00:00 17,7 11,8 7 4 - - N 1012,2 20
21.05.2018 22:00:00 19,2 10,8 4 2 18 10 N 1012,1 20
21.05.2018 21:00:00 20,8 12,0 11 6 18 10 ENE 1011,8 20
21.05.2018 20:00:00 21,8 12,1 4 2 - - N 1011,3 20
21.05.2018 19:00:00 23,3 11,2 7 4 14 8 S 1011,7 20
21.05.2018 18:00:00 22,7 11,0 7 4 18 10 ESE 1012,0 20
21.05.2018 17:00:00 23,3 11,2 7 4 - - E 1012,5 20
21.05.2018 16:00:00 22,6 10,0 11 6 29 16 ESE 1013,0 19
21.05.2018 15:00:00 22,1 11,6 11 6 29 16 ENE 1013,3 20
21.05.2018 14:00:00 21,6 11,3 11 6 - - NE 1013,8 17
21.05.2018 13:00:00 19,7 11,8 11 6 25 14 ENE 1014,3 18
21.05.2018 12:00:00 18,7 12,8 7 4 18 10 ENE 1014,8 18
21.05.2018 11:00:00 17,3 13,4 7 4 - - NE 1015,5 16
21.05.2018 10:00:00 16,2 11,9 11 6 22 12 ENE 1015,8 15
21.05.2018 09:00:00 15,4 13,2 7 4 11 6 NE 1016,2 6
21.05.2018 08:00:00 13,8 12,6 4 2 - - N 1016,6 5
21.05.2018 07:00:00 13,5 12,1 7 4 11 6 NE 1016,7 6
21.05.2018 06:00:00 13,3 11,9 4 2 7 4 N 1017,2 6
21.05.2018 05:00:00 12,8 12,1 4 2 - - N 1017,2 6
21.05.2018 04:00:00 13,0 11,9 4 2 4 2 N 1017,7 6
21.05.2018 03:00:00 14,1 12,2 4 2 7 4 N 1018,3 9
21.05.2018 02:00:00 13,1 11,9 4 2 - - N 1019,1 3,6
21.05.2018 01:00:00 13,0 11,5 4 2 11 6 N 1019,2 4,2
21.05.2018 00:00:00 13,6 11,3 7 4 14 8 N 1019,2 5
20.05.2018 23:00:00 14,3 11,4 4 2 - - N 1019,8 6

tt = Température de l'air
td = dewpoint
ff = Vitesse du vent
fx = gusts
dd = Direction du vent
ppp = reduced air pressure
vv = visibility

stations d'obs. à proximité